Location: Juzet
(42.9779°N, 0.7597°E)
Time: 18:36:08
(UTC+00:00)

Meteor 1-4 Rocket - Pass Details

Date: 14 July 2020
Orbit: 449 x 503 km, 81.2° (Epoch: 11 August)

Event Time Altitude Azimuth Distance (km) Brightness Sun altitude
Rises 00:16:15 0° 358° (N) 2,584 7.6 -25.3°
Reaches altitude 10° 00:18:31 10° 7° (N) 1,689 6.3 -25.3°
Enters shadow 00:21:24 33° 54° (NE) 829 4.0 -25.2°
